Surface/Precipitation History
12/05/2016 10:59  to  12/6/2016 10:59
Change End Date:
Date/Time
(MST)
Sf
Temp Chem Water Layer Surface Precipitation
Sfc Pvt Sub Frz Factor Pct Dpth DpthThk IcePct Cond Salin FI Type Intens Accum Rate
12/06/2016 10:46 Ice Warning 21.9F - 31F 32F 70 1% - - 98% 2 mhos 188 - Yes - - -
12/06/2016 10:37 Ice Warning 20.8F - 31F 32F 95 1% - - 98% 2 mhos 192 - Yes - - -
12/06/2016 10:31 Ice Warning 20.3F - 32F 32F 95 1% - - 98% 2 mhos 196 - Yes - - -
12/06/2016 10:27 Ice Warning 19.9F - 32F 32F 95 1% - - 98% 2 mhos 195 - None None - -
12/06/2016 10:17 Ice Warning 19.0F - 32F 32F 95 1% - - 99% 1 mhos 189 - Yes - - -
12/06/2016 10:16 Ice Warning 19.0F - 32F 32F 95 1% - - 99% 1 mhos 190 - None None - -
12/06/2016 10:07 Ice Warning 18.3F - 32F 32F 95 1% - - 99% 1 mhos 192 - None None - -
12/06/2016 10:01 Ice Warning 17.8F - 32F 32F 95 1% - - 99% 1 mhos 194 - None None - -
12/06/2016 09:57 Ice Warning 17.4F - 32F 32F 95 1% - - 99% 1 mhos 196 - None None - -
12/06/2016 09:46 Ice Warning 17.1F - 32F 32F 95 1% - - 99% 1 mhos 191 - None None - -
12/06/2016 09:46 Ice Warning 17.1F - 32F 32F 95 1% - - 99% 1 mhos 191 - None None - -
12/06/2016 09:36 Ice Warning 16.3F - 32F 32F 95 1% - - 99% 1 mhos 191 - None None - -
12/06/2016 09:31 Ice Warning 16.0F - 32F 32F 95 1% - - 99% 1 mhos 190 - None None - -
12/06/2016 09:26 Ice Warning 15.8F - 32F 32F 95 1% - - 99% 1 mhos 192 - None None - -
12/06/2016 09:16 Ice Warning 15.1F - 32F 32F 95 1% - - 99% 1 mhos 195 - None None - -
Date/Time
(MST)
Sf
Temp Chem Water Layer Surface Precipitation
Sfc Pvt Sub Frz Factor Pct Dpth DpthThk IcePct Cond Salin FI Type Intens Accum Rate
12/06/2016 09:16 Ice Warning 15.1F - 32F 32F 95 1% - - 99% 1 mhos 195 - None None - -
12/06/2016 09:06 Ice Warning 14.4F - 32F 32F 95 1% - - 99% 1 mhos 189 - None None - -
12/06/2016 09:01 Ice Warning 14.0F - 32F 32F 95 1% - - 99% 1 mhos 191 - None None - -
12/06/2016 08:56 Ice Warning 14.2F - 32F 32F 95 1% - - 99% 1 mhos 194 - None None - -
12/06/2016 08:46 Ice Warning 13.6F - 32F 32F 95 1% - - 99% 1 mhos 190 - None None - -
12/06/2016 08:46 Ice Warning 13.6F - 32F 32F 95 1% - - 99% 1 mhos 187 - None None - -
12/06/2016 08:36 Ice Warning 13.6F - 32F 32F 95 1% - - 99% 1 mhos 187 - None None - -
12/06/2016 08:31 Ice Warning 13.5F - 32F 32F 95 1% - - 99% 1 mhos 188 - None None - -
12/06/2016 08:26 Ice Warning 13.5F - 32F 32F 95 1% - - 99% 1 mhos 186 - None None - -
12/06/2016 08:16 Ice Warning 13.3F - 32F 32F 95 1% - - 99% 1 mhos 186 - None None - -
12/06/2016 08:16 Ice Warning 13.3F - 32F 32F 95 1% - - 99% 1 mhos 186 - None None - -
12/06/2016 08:06 Ice Warning 13.6F - 32F 32F 95 1% - - 99% 1 mhos 184 - None None - -
12/06/2016 08:01 Ice Warning 13.6F - 32F 32F 95 1% - - 99% 1 mhos 182 - None None - -
12/06/2016 07:56 Ice Warning 13.6F - 32F 32F 95 1% - - 99% 1 mhos 181 - None None - -
12/06/2016 07:46 Ice Warning 14.0F - 32F 32F 95 1% - - 99% 1 mhos 179 - None None - -
Date/Time
(MST)
Sf
Temp Chem Water Layer Surface Precipitation
Sfc Pvt Sub Frz Factor Pct Dpth DpthThk IcePct Cond Salin FI Type Intens Accum Rate
12/06/2016 07:46 Ice Warning 14.0F - 32F 32F 95 1% - - 99% 1 mhos 179 - None None - -
12/06/2016 07:36 Ice Warning 14.2F - 32F 32F 95 1% - - 99% 1 mhos 179 - None None - -
12/06/2016 07:31 Ice Warning 14.4F - 32F 32F 95 1% - - 99% 1 mhos 178 - None None - -
12/06/2016 07:26 Ice Warning 14.5F - 32F 32F 95 1% - - 99% 1 mhos 180 - None None - -
12/06/2016 07:16 Ice Warning 14.5F - 32F 32F 95 1% - - 99% 1 mhos 182 - None None - -
12/06/2016 07:16 Ice Warning 14.5F - 32F 32F 95 1% - - 99% 1 mhos 182 - None None - -
12/06/2016 07:06 Ice Warning 14.5F - 32F 32F 95 1% - - 99% 1 mhos 156 - None None - -
12/06/2016 07:01 Ice Warning 14.7F - 32F 32F 95 1% - - 99% 1 mhos 190 - None None - -
12/06/2016 06:55 Ice Warning 14.5F - 32F 32F 95 1% - - 99% 1 mhos 189 - None None - -
12/06/2016 06:46 Ice Warning 14.4F - 32F 32F 95 1% - - 99% 1 mhos 186 - None None - -
12/06/2016 06:45 Ice Warning 14.4F - 32F 32F 95 1% - - 99% 1 mhos 186 - None None - -
12/06/2016 06:35 Ice Warning 14.7F - 32F 32F 95 1% - - 99% 1 mhos 183 - None None - -
12/06/2016 06:31 Ice Warning 14.7F - 32F 32F 95 1% - - 99% 1 mhos 183 - None None - -
12/06/2016 06:25 Ice Warning 14.7F - 33F 32F 95 1% - - 99% 1 mhos 183 - None None - -
12/06/2016 06:16 Ice Warning 14.9F - 33F 32F 95 1% - - 99% 1 mhos 180 - None None - -
Date/Time
(MST)
Sf
Temp Chem Water Layer Surface Precipitation
Sfc Pvt Sub Frz Factor Pct Dpth DpthThk IcePct Cond Salin FI Type Intens Accum Rate
12/06/2016 06:15 Ice Warning 14.9F - 33F 32F 95 1% - - 99% 1 mhos 180 - None None - -
12/06/2016 06:05 Ice Warning 15.1F - 33F 32F 95 1% - - 99% 1 mhos 180 - None None - -
12/06/2016 06:01 Ice Warning 15.1F - 33F 32F 95 1% - - 99% 1 mhos 177 - None None - -
12/06/2016 05:55 Ice Warning 15.1F - 33F 32F 95 1% - - 99% 1 mhos 175 - None None - -
12/06/2016 05:46 Ice Warning 15.3F - 33F 32F 95 1% - - 99% 1 mhos 176 - None None - -
12/06/2016 05:45 Ice Warning 15.4F - 33F 32F 95 1% - - 99% 1 mhos 175 - None None - -
12/06/2016 05:35 Ice Warning 15.6F - 33F 32F 95 1% - - 99% 1 mhos 174 - None None - -
12/06/2016 05:31 Ice Warning 15.6F - 33F 32F 95 1% - - 99% 1 mhos 174 - None None - -
12/06/2016 05:25 Ice Warning 15.6F - 33F 32F 95 1% - - 99% 1 mhos 175 - None None - -
12/06/2016 05:16 Ice Warning 15.8F - 33F 32F 95 1% - - 99% 1 mhos 172 - None None - -
12/06/2016 05:15 Ice Warning 15.8F - 33F 32F 95 1% - - 99% 1 mhos 173 - None None - -
12/06/2016 05:05 Ice Warning 15.8F - 33F 32F 95 1% - - 99% 1 mhos 172 - None None - -
12/06/2016 05:01 Ice Warning 15.6F - 33F 32F 95 1% - - 99% 1 mhos 174 - None None - -
12/06/2016 04:55 Ice Warning 15.8F - 33F 32F 95 1% - - 99% 1 mhos 174 - None None - -
12/06/2016 04:46 Ice Warning 15.8F - 33F 32F 95 1% - - 99% 1 mhos 167 - None None - -
Date/Time
(MST)
Sf
Temp Chem Water Layer Surface Precipitation
Sfc Pvt Sub Frz Factor Pct Dpth DpthThk IcePct Cond Salin FI Type Intens Accum Rate
12/06/2016 04:45 Ice Warning 15.8F - 33F 32F 95 1% - - 99% 1 mhos 168 - None None - -
12/06/2016 04:35 Ice Warning 15.8F - 33F 32F 95 1% - - 99% 1 mhos 168 - None None - -
12/06/2016 04:31 Ice Warning 15.8F - 33F 32F 95 1% - - 99% 1 mhos 167 - Yes - - -
12/06/2016 04:25 Ice Warning 15.8F - 33F 32F 95 1% - - 99% 1 mhos 166 - None None - -
12/06/2016 04:16 Ice Warning 16.0F - 33F 32F 95 1% - - 99% 1 mhos 167 - None None - -
12/06/2016 04:14 Ice Warning 16.0F - 33F 32F 95 1% - - 99% 1 mhos 167 - None None - -
12/06/2016 04:04 Ice Warning 16.2F - 33F 32F 95 1% - - 99% 1 mhos 165 - Yes - - -
12/06/2016 04:01 Ice Warning 16.2F - 33F 32F 95 1% - - 99% 1 mhos 164 - None None - -
12/06/2016 03:54 Ice Warning 16.2F - 33F 32F 95 1% - - 99% 1 mhos 164 - Yes - - -
12/06/2016 03:46 Ice Warning 16.3F - 33F 32F 95 1% - - 99% 1 mhos 163 - None None - -
12/06/2016 03:44 Ice Warning 16.3F - 33F 32F 95 1% - - 99% 1 mhos 164 - Yes - - -
12/06/2016 03:34 Ice Warning 16.9F - 33F 32F 95 1% - - 99% 1 mhos 162 - None None - -
12/06/2016 03:31 Ice Warning 17.2F - 33F 32F 95 1% - - 99% 1 mhos 163 - Yes - - -
12/06/2016 03:24 Ice Warning 17.4F - 33F 32F 95 1% - - 99% 1 mhos 162 - Yes - - -
12/06/2016 03:16 Ice Warning 18.0F - 33F 32F 95 1% - - 99% 1 mhos 161 - Yes - - -
Date/Time
(MST)
Sf
Temp Chem Water Layer Surface Precipitation
Sfc Pvt Sub Frz Factor Pct Dpth DpthThk IcePct Cond Salin FI Type Intens Accum Rate
12/06/2016 03:14 Ice Warning 18.1F - 33F 32F 95 1% - - 99% 1 mhos 162 - None None - -
12/06/2016 03:04 Ice Warning 18.5F - 33F 32F 95 1% - - 99% 1 mhos 161 - Yes - - -
12/06/2016 03:01 Ice Warning 18.5F - 33F 32F 95 1% - - 99% 1 mhos 159 - Yes - - -
12/06/2016 02:54 Ice Warning 18.9F - 33F 32F 95 1% - - 99% 1 mhos 163 - None None - -
12/06/2016 02:46 Ice Warning 19.2F - 33F 32F 95 1% - - 99% 1 mhos 161 - None None - -
12/06/2016 02:44 Ice Warning 19.4F - 33F 32F 95 1% - - 99% 1 mhos 161 - Yes - - -
12/06/2016 02:34 Ice Warning 19.4F - 33F 32F 95 1% - - 99% 1 mhos 162 - Yes - - -
12/06/2016 02:31 Ice Warning 19.4F - 33F 32F 95 1% - - 99% 1 mhos 161 - Yes - - -
12/06/2016 02:24 Ice Warning 19.4F - 33F 32F 95 1% - - 99% 1 mhos 160 - Yes - - -
12/06/2016 02:16 Ice Warning 19.6F - 33F 32F 95 1% - - 99% 1 mhos 160 - Yes - - -
12/06/2016 02:14 Ice Warning 19.4F - 33F 32F 95 1% - - 99% 1 mhos 159 - Yes - - -
12/06/2016 02:04 Ice Warning 19.4F - 33F 32F 95 1% - - 99% 1 mhos 159 - Yes - - -
12/06/2016 02:01 Ice Warning 19.6F - 33F 32F 95 1% - - 99% 1 mhos 156 - None None - -
12/06/2016 01:54 Ice Warning 19.4F - 33F 32F 95 1% - - 99% 1 mhos 157 - None None - -
12/06/2016 01:46 Ice Warning 19.6F - 33F 32F 95 1% - - 99% 1 mhos 156 - None None - -
Date/Time
(MST)
Sf
Temp Chem Water Layer Surface Precipitation
Sfc Pvt Sub Frz Factor Pct Dpth DpthThk IcePct Cond Salin FI Type Intens Accum Rate
12/06/2016 01:44 Ice Warning 19.4F - 33F 32F 95 1% - - 99% 1 mhos 157 - None None - -
12/06/2016 01:34 Ice Warning 19.4F - 33F 32F 95 1% - - 99% 1 mhos 156 - Yes - - -
12/06/2016 01:31 Ice Warning 19.4F - 33F 32F 95 1% - - 99% 1 mhos 155 - Yes - - -
12/06/2016 01:23 Ice Warning 19.4F - 33F 32F 95 1% - - 99% 1 mhos 153 - Yes - - -
12/06/2016 01:16 Ice Warning 19.4F - 33F 32F 95 1% - - 99% 1 mhos 154 - Yes - - -
12/06/2016 01:13 Ice Warning 19.4F - 33F 32F 95 1% - - 99% 1 mhos 154 - None None - -
12/06/2016 01:03 Ice Warning 19.4F - 33F 32F 95 1% - - 99% 1 mhos 151 - Yes - - -
12/06/2016 01:01 Ice Warning 19.2F - 33F 32F 95 1% - - 99% 1 mhos 152 - Yes - - -
12/06/2016 00:53 Ice Warning 19.2F - 33F 32F 95 1% - - 99% 1 mhos 151 - Yes - - -
12/06/2016 00:46 Ice Warning 19.4F - 33F 32F 95 1% - - 99% 1 mhos 149 - Yes - - -
12/06/2016 00:43 Ice Warning 19.4F - 33F 32F 95 1% - - 99% 1 mhos 150 - Yes - - -
12/06/2016 00:33 Ice Warning 19.4F - 33F 32F 95 1% - - 99% 1 mhos 150 - None None - -
12/06/2016 00:31 Ice Warning 19.4F - 33F 32F 95 1% - - 99% 1 mhos 150 - Yes - - -
12/06/2016 00:23 Ice Warning 19.4F - 33F 32F 95 1% - - 99% 1 mhos 149 - Yes - - -
12/06/2016 00:16 Ice Warning 19.4F - 33F 32F 95 1% - - 99% 1 mhos 147 - Yes - - -
Date/Time
(MST)
Sf
Temp Chem Water Layer Surface Precipitation
Sfc Pvt Sub Frz Factor Pct Dpth DpthThk IcePct Cond Salin FI Type Intens Accum Rate
12/06/2016 00:13 Ice Warning 19.4F - 33F 32F 95 1% - - 99% 1 mhos 147 - None None - -
12/06/2016 00:03 Ice Warning 19.4F - 33F 32F 95 1% - - 99% 1 mhos 149 - Yes - - -
12/06/2016 00:01 Ice Warning 19.4F - 33F 32F 95 1% - - 99% 1 mhos 148 - None None - -
12/05/2016 23:53 Ice Warning 19.6F - 33F 32F 95 1% - - 99% 1 mhos 148 - None None - -
12/05/2016 23:46 Ice Warning 19.8F - 33F 32F 95 1% - - 99% 1 mhos 148 - Yes - - -
12/05/2016 23:43 Ice Warning 19.8F - 33F 32F 95 1% - - 99% 1 mhos 149 - Yes - - -
12/05/2016 23:33 Ice Warning 20.3F - 33F 32F 95 1% - - 99% 1 mhos 148 - Yes - - -
12/05/2016 23:31 Ice Warning 20.3F - 33F 32F 95 1% - - 99% 1 mhos 148 - Yes - - -
12/05/2016 23:23 Ice Warning 20.3F - 33F 32F 95 1% - - 99% 1 mhos 147 - Yes - - -
12/05/2016 23:16 Ice Warning 20.3F - 33F 32F 95 1% - - 99% 1 mhos 147 - Yes - - -
12/05/2016 23:13 Ice Warning 20.3F - 33F 32F 95 1% - - 99% 1 mhos 148 - Yes - - -
12/05/2016 23:03 Ice Warning 20.3F - 33F 32F 95 1% - - 99% 1 mhos 145 - Yes - - -
12/05/2016 23:01 Ice Warning 20.3F - 33F 32F 95 1% - - 99% 1 mhos 146 - Yes - - -
12/05/2016 22:53 Ice Warning 20.3F - 33F 32F 95 1% - - 99% 1 mhos 146 - Yes - - -
12/05/2016 22:46 Ice Warning 20.3F - 33F 32F 95 1% - - 99% 1 mhos 146 - Yes - - -
Date/Time
(MST)
Sf
Temp Chem Water Layer Surface Precipitation
Sfc Pvt Sub Frz Factor Pct Dpth DpthThk IcePct Cond Salin FI Type Intens Accum Rate
12/05/2016 22:42 Ice Warning 20.3F - 33F 32F 95 1% - - 99% 1 mhos 146 - Yes - - -
12/05/2016 22:32 Ice Warning 20.3F - 33F 32F 95 1% - - 99% 1 mhos 145 - Yes - - -
12/05/2016 22:31 Ice Warning 20.3F - 33F 32F 95 1% - - 99% 1 mhos 145 - Yes - - -
12/05/2016 22:22 Ice Warning 20.1F - 33F 32F 95 1% - - 99% 1 mhos 143 - Yes - - -
12/05/2016 22:16 Ice Warning 19.9F - 33F 32F 95 1% - - 99% 1 mhos 143 - Yes - - -
12/05/2016 22:12 Ice Warning 19.6F - 33F 32F 95 1% - - 99% 1 mhos 143 - Yes - - -
12/05/2016 22:02 Ice Warning 19.4F - 33F 32F 95 1% - - 99% 1 mhos 139 - Yes - - -
12/05/2016 22:01 Ice Warning 19.4F - 33F 32F 95 1% - - 99% 1 mhos 138 - Yes - - -
12/05/2016 21:52 Ice Warning 19.2F - 33F 32F 95 1% - - 99% 1 mhos 138 - Yes - - -
12/05/2016 21:46 Ice Warning 19.2F - 33F 32F 95 1% - - 99% 1 mhos 135 - Yes - - -
12/05/2016 21:42 Ice Warning 19.2F - 33F 32F 95 1% - - 99% 1 mhos 136 - Yes - - -
12/05/2016 21:32 Ice Warning 19.2F - 33F 32F 95 1% - - 99% 1 mhos 136 - Yes - - -
12/05/2016 21:31 Ice Warning 19.4F - 33F 32F 95 1% - - 99% 1 mhos 135 - Yes - - -
12/05/2016 21:22 Ice Warning 19.4F - 33F 32F 95 1% - - 99% 1 mhos 134 - Yes - - -
12/05/2016 21:16 Ice Warning 19.4F - 33F 32F 95 1% - - 99% 1 mhos 134 - Yes - - -
Date/Time
(MST)
Sf
Temp Chem Water Layer Surface Precipitation
Sfc Pvt Sub Frz Factor Pct Dpth DpthThk IcePct Cond Salin FI Type Intens Accum Rate
12/05/2016 21:12 Ice Warning 19.6F - 33F 32F 95 1% - - 99% 1 mhos 133 - Yes - - -
12/05/2016 21:02 Ice Warning 20.1F - 33F 32F 95 1% - - 99% 1 mhos 132 - Yes - - -
12/05/2016 21:01 Ice Warning 20.1F - 33F 32F 95 1% - - 99% 1 mhos 133 - Yes - - -
12/05/2016 20:52 Ice Warning 20.8F - 33F 32F 95 1% - - 99% 1 mhos 133 - Yes - - -
12/05/2016 20:46 Ice Warning 21.4F - 33F 32F 95 1% - - 99% 1 mhos 141 - Yes - - -
12/05/2016 20:42 Ice Warning 21.6F - 33F 32F 95 1% - - 99% 1 mhos 139 - Yes - - -
12/05/2016 20:32 Ice Warning 22.5F - 33F 32F 95 1% - - 99% 1 mhos 141 - Yes - - -
12/05/2016 20:31 Ice Warning 22.5F - 33F 32F 95 1% - - 99% 1 mhos 140 - Yes - - -
12/05/2016 20:22 Ice Warning 23.2F - 34F 32F 95 1% - - 98% 1 mhos 145 - Yes - - -
12/05/2016 20:16 Ice Warning 23.4F - 34F 32F 95 1% - - 98% 1 mhos 145 - Yes - - -
12/05/2016 20:12 Ice Warning 23.2F - 34F 32F 95 1% - - 98% 1 mhos 144 - Yes - - -
12/05/2016 20:02 Ice Warning 23.0F - 33F 32F 95 1% - - 98% 1 mhos 148 - Yes - - -
12/05/2016 20:01 Ice Warning 23.0F - 34F 32F 95 1% - - 98% 1 mhos 150 - Yes - - -
12/05/2016 19:51 Ice Warning 22.8F - 34F 32F 95 1% - - 98% 1 mhos 161 - Yes - - -
12/05/2016 19:46 Ice Warning 22.5F - 34F 32F 95 1% - - 98% 1 mhos 166 - Yes - - -
Date/Time
(MST)
Sf
Temp Chem Water Layer Surface Precipitation
Sfc Pvt Sub Frz Factor Pct Dpth DpthThk IcePct Cond Salin FI Type Intens Accum Rate
12/05/2016 19:41 Ice Warning 22.3F - 34F 32F 95 1% - - 98% 1 mhos 171 - Yes - - -
12/05/2016 19:31 Ice Warning 22.1F - 34F 32F 95 1% - - 98% 1 mhos 180 - Yes - - -
12/05/2016 19:31 Ice Warning 22.1F - 34F 32F 95 1% - - 98% 1 mhos 181 - Yes - - -
12/05/2016 19:21 Ice Warning 22.1F - 34F 32F 95 1% - - 98% 1 mhos 177 - Yes - - -
12/05/2016 19:16 Ice Warning 22.1F - 34F 32F 95 1% - - 98% 1 mhos 172 - Yes - - -
12/05/2016 19:11 Ice Warning 22.1F - 34F 32F 95 1% - - 98% 1 mhos 170 - Yes - - -
12/05/2016 19:01 Ice Warning 22.6F - 34F 32F 95 1% - - 98% 1 mhos 170 - Yes - - -
12/05/2016 19:01 Ice Warning 22.6F - 34F 32F 95 1% - - 98% 1 mhos 170 - Yes - - -
12/05/2016 18:51 Ice Warning 22.5F - 34F 32F 95 1% - - 98% 1 mhos 163 - None None - -
12/05/2016 18:46 Ice Warning 22.3F - 34F 32F 90 1% - - 98% 1 mhos 163 - Yes - - -
12/05/2016 18:41 Ice Warning 22.5F - 34F 32F 75 1% - - 98% 1 mhos 161 - Yes - - -
12/05/2016 18:31 Ice Warning 22.5F - 34F 32F 15 1% - - 98% 1 mhos 167 - Yes - - -
12/05/2016 18:31 Ice Warning 22.5F - 34F 32F 15 1% - - 98% 1 mhos 167 - Yes - - -
12/05/2016 18:21 Ice Warning 22.3F - 34F 32F 15 1% - - 98% 1 mhos 169 - None None - -
12/05/2016 18:16 Ice Warning 22.3F - 34F 32F 15 1% - - 98% 1 mhos 170 - None None - -
Date/Time
(MST)
Sf
Temp Chem Water Layer Surface Precipitation
Sfc Pvt Sub Frz Factor Pct Dpth DpthThk IcePct Cond Salin FI Type Intens Accum Rate
12/05/2016 18:11 Ice Warning 22.3F - 34F 32F 15 1% - - 98% 1 mhos 171 - None None - -
12/05/2016 18:01 Ice Warning 22.1F - 34F 32F 20 1% - - 98% 1 mhos 173 - None None - -
12/05/2016 18:01 Ice Warning 22.1F - 34F 32F 20 1% - - 98% 1 mhos 173 - None None - -
12/05/2016 17:51 Ice Warning 21.9F - 34F 32F 30 1% - - 98% 1 mhos 173 - None None - -
12/05/2016 17:46 Ice Warning 21.7F - 34F 32F 35 1% - - 98% 1 mhos 169 - None None - -
12/05/2016 17:41 Ice Warning 21.7F - 34F 32F 45 1% - - 98% 1 mhos 168 - None None - -
12/05/2016 17:31 Ice Warning 21.0F - 34F 32F 45 1% - - 99% 1 mhos 167 - None None - -
12/05/2016 17:31 Ice Warning 21.0F - 34F 32F 45 1% - - 99% 1 mhos 167 - None None - -
12/05/2016 17:21 Ice Warning 21.4F - 34F 32F 60 1% - - 98% 1 mhos 164 - None None - -
12/05/2016 17:16 Ice Warning 21.4F - 34F 32F 65 1% - - 99% 1 mhos 159 - None None - -
12/05/2016 17:10 Ice Warning 21.6F - 34F 32F 70 1% - - 98% 1 mhos 159 - None None - -
12/05/2016 17:01 Ice Warning 22.1F - 34F 32F 75 1% - - 98% 1 mhos 159 - None None - -
12/05/2016 17:00 Ice Warning 22.1F - 34F 32F 75 1% - - 98% 1 mhos 159 - None None - -
12/05/2016 16:50 Ice Warning 22.6F - 34F 32F 75 1% - - 98% 1 mhos 162 - None None - -
12/05/2016 16:46 Ice Warning 23.0F - 34F 32F 85 1% - - 98% 1 mhos 163 - None None - -
Date/Time
(MST)
Sf
Temp Chem Water Layer Surface Precipitation
Sfc Pvt Sub Frz Factor Pct Dpth DpthThk IcePct Cond Salin FI Type Intens Accum Rate
12/05/2016 16:40 Ice Warning 23.5F - 34F 32F 90 0% - - 99% 1 mhos 124 - None None - -
12/05/2016 16:31 Ice Warning 24.3F - 34F 32F 95 0% - - 98% 1 mhos 128 - None None - -
12/05/2016 16:30 Ice Warning 24.3F - 34F 32F 95 0% - - 98% 1 mhos 128 - None None - -
12/05/2016 16:20 Ice Warning 25.0F - 34F 32F 95 1% - - 98% 1 mhos 131 - Yes - - -
12/05/2016 16:16 Ice Warning 25.3F - 34F 32F 95 1% - - 98% 1 mhos 131 - None None - -
12/05/2016 16:10 Ice Warning 25.5F - 34F 32F 95 1% - - 98% 1 mhos 133 - None None - -
12/05/2016 16:01 Ice Warning 25.5F - 34F 32F 95 1% - - 98% 1 mhos 136 - None None - -
12/05/2016 16:00 Ice Warning 25.5F - 34F 32F 95 1% - - 98% 1 mhos 136 - None None - -
12/05/2016 15:50 Ice Warning 25.5F - 34F 32F 95 1% - - 98% 1 mhos 137 - None None - -
12/05/2016 15:46 Ice Warning 25.7F - 34F 32F 95 1% - - 98% 1 mhos 140 - None None - -
12/05/2016 15:40 Ice Warning 25.7F - 34F 32F 95 1% - - 98% 1 mhos 142 - None None - -
12/05/2016 15:31 Ice Warning 26.1F - 34F 32F 95 1% - - 98% 1 mhos 150 - None None - -
12/05/2016 15:30 Ice Warning 26.1F - 34F 32F 95 1% - - 98% 1 mhos 150 - None None - -
12/05/2016 15:20 Ice Warning 27.1F - 34F 32F 95 1% - - 96% 2 mhos 175 - Yes - - -
12/05/2016 15:16 Ice Warning 27.7F - 34F 32F 95 1% - - 96% 2 mhos 196 - Yes - - -
Date/Time
(MST)
Sf
Temp Chem Water Layer Surface Precipitation
Sfc Pvt Sub Frz Factor Pct Dpth DpthThk IcePct Cond Salin FI Type Intens Accum Rate
12/05/2016 15:10 Ice Warning 27.5F - 34F 32F 95 2% - - 91% 4 mhos 404 - Yes - - -
12/05/2016 15:01 Ice Warning 27.3F - 34F 31F 95 2% - - 89% 5 mhos 538 - Yes - - -
12/05/2016 15:00 Ice Warning 27.3F - 34F 31F 95 2% - - 89% 5 mhos 538 - Yes - - -
12/05/2016 14:50 Chemically Wet 27.3F - 34F 31F 95 3% - - 83% 7 mhos 781 - None None - -
12/05/2016 14:46 Chemically Wet 28.2F - 34F 31F 95 3% - - 79% 7 mhos 795 - Yes - - -
12/05/2016 14:40 Chemically Wet 28.0F - 34F 31F 95 3% - - 79% 7 mhos 808 - Yes - - -
12/05/2016 14:31 Chemically Wet 29.1F - 34F 31F 95 4% - - 66% 8 mhos 946 - Yes - - -
12/05/2016 14:30 Chemically Wet 29.1F - 34F 31F 95 4% - - 68% 8 mhos 948 - None None - -
12/05/2016 14:19 Chemically Wet 29.5F - 34F 31F 95 4% - - 61% 9 mhos 955 - None None - -
12/05/2016 14:16 Chemically Wet 29.8F - 34F 31F 95 4% - - 56% 9 mhos 952 - None None - -
12/05/2016 14:09 Chemically Wet 31.1F - 34F 31F 95 4% 0.00 in - 0% 9 mhos 937 - Yes - - -
12/05/2016 14:01 Chemically Wet 31.5F - 34F 31F 95 4% 0.00 in - 0% 9 mhos 952 - Yes - - -
12/05/2016 13:59 Wet 32.2F - 34F 31F 95 4% 0.00 in - 0% 9 mhos 952 - Yes - - -
12/05/2016 13:49 Wet 33.8F - 34F 31F 95 4% 0.00 in - 0% 9 mhos 960 - Yes - - -
12/05/2016 13:46 Wet 33.4F - 34F 31F 95 4% 0.00 in - 0% 9 mhos 975 - Yes - - -
Date/Time
(MST)
Sf
Temp Chem Water Layer Surface Precipitation
Sfc Pvt Sub Frz Factor Pct Dpth DpthThk IcePct Cond Salin FI Type Intens Accum Rate
12/05/2016 13:39 Chemically Wet 31.3F - 34F 31F 95 4% 0.00 in - 0% 9 mhos 957 - Yes - - -
12/05/2016 13:31 Chemically Wet 30.4F - 34F 31F 95 4% - - 40% 8 mhos 911 - Yes - - -
12/05/2016 13:29 Chemically Wet 30.9F - 34F 31F 95 3% - - 15% 8 mhos 892 - None None - -
12/05/2016 13:19 Wet 34.9F - 34F 31F 95 3% 0.00 in - 0% 8 mhos 829 - Yes - - -
12/05/2016 13:16 Wet 35.6F - 34F 31F 95 3% 0.00 in - 0% 8 mhos 817 - Yes - - -
12/05/2016 13:09 Wet 35.1F - 34F 31F 95 3% 0.00 in - 0% 8 mhos 821 - Yes - - -
12/05/2016 13:01 Wet 36.5F - 34F 31F 95 3% 0.00 in - 0% 8 mhos 804 - Yes - - -
12/05/2016 12:59 Wet 37.0F - 34F 31F 95 3% 0.00 in - 0% 8 mhos 777 - Yes - - -
12/05/2016 12:49 Wet 36.5F - 34F 31F 95 3% 0.00 in - 0% 8 mhos 772 - Yes - - -
12/05/2016 12:46 Wet 35.2F - 34F 31F 95 3% 0.00 in - 0% 7 mhos 730 - Yes - - -
12/05/2016 12:39 Wet 33.4F - 34F 31F 95 3% 0.00 in - 0% 7 mhos 731 - Yes - - -
12/05/2016 12:31 Wet 34.2F - 34F 31F 95 3% 0.00 in - 0% 7 mhos 706 - Yes - - -
12/05/2016 12:29 Wet 35.4F - 34F 31F 95 3% 0.00 in - 0% 7 mhos 695 - Yes - - -
12/05/2016 12:19 Wet 36.1F - 34F 31F 95 3% 0.00 in - 0% 7 mhos 715 - Yes - - -
12/05/2016 12:16 Wet 34.7F - 34F 31F 95 3% 0.00 in - 0% 7 mhos 734 - Yes - - -
Date/Time
(MST)
Sf
Temp Chem Water Layer Surface Precipitation
Sfc Pvt Sub Frz Factor Pct Dpth DpthThk IcePct Cond Salin FI Type Intens Accum Rate
12/05/2016 12:09 Wet 32.5F - 34F 31F 95 3% 0.00 in - 0% 7 mhos 765 - Yes - - -
12/05/2016 12:01 Chemically Wet 31.1F - 34F 31F 95 3% - - 12% 7 mhos 794 - None None - -
12/05/2016 11:59 Chemically Wet 30.6F - 34F 31F 95 3% - - 43% 7 mhos 783 - Yes - - -
12/05/2016 11:49 Chemically Wet 29.7F - 34F 31F 95 4% - - 51% 10 mhos 1118 - Yes - - -
12/05/2016 11:46 Chemically Wet 29.5F - 34F 31F 95 4% - - 56% 10 mhos 1083 - Yes - - -
12/05/2016 11:38 Chemically Wet 28.8F - 34F 31F 95 3% - - 78% 6 mhos 714 - Yes - - -
12/05/2016 11:31 Chemically Wet 28.2F - 34F 31F 95 3% - - 82% 6 mhos 658 - Yes - - -
12/05/2016 11:28 Chemically Wet 28.4F - 34F 31F 95 2% - - 82% 6 mhos 636 - None None - -
12/05/2016 11:18 Chemically Wet 28.0F - 34F 31F 95 2% - - 84% 6 mhos 630 - Yes - - -
12/05/2016 11:16 Chemically Wet 28.2F - 34F 31F 95 2% - - 83% 6 mhos 646 - Yes - - -
12/05/2016 11:08 Ice Warning 27.7F - 34F 31F 95 2% - - 87% 5 mhos 569 - None None - -
12/05/2016 11:01 Ice Warning 27.7F - 34F 31F 95 2% - - 88% 5 mhos 526 - Yes - - -
Change End Date:

Copyright © 1998-2015 Vaisala, Inc.
All Rights Reserved
Send comments about the data to:
SCAN Web ® is a registered trademark of Vaisala, Inc.
SCAN Web Version 6.0